STARLINK-1670 (46370 NORAD) Tracking and Keplerian Element Data

This shows tracking and keplerian element data for the satellite.

Feedback or suggestion? Click here.




ElementValue
Catalog46370
NameSTARLINK-1670
Epoch Orbit177
Epoch Day267.58334491
Epoch Year2020
RAAN330.3271
Inclination53.0005
Eccentricity9.81E-05
Argument of Perigee36.1389
Mean Anonmoly209.4706
Mean Motion15.62727656
Decay Rate0.00062987
L11 46370U 20062AX 20267.58334491 .00062987 00000-0 68906-3 0 9998
L22 46370 53.0005 330.3271 0000981 36.1389 209.4706 15.62727656 1772

Live tracking and technical data element details for STARLINK-1670 (NORAD 46370). STARLINK-1670 can be tracked NOW for your location showing map with azimuth and elevation plus other details from your city location.

Track the satellite on the map from your city or location and see movement details for azimuth, elevation, latitude, longitude, range, height, and movement on the map or in text.







IsCatalogInMostPopularTable: catalog: 46370, numindb: 3
Update: records affected: 1



GetName: 46370 STARLINK-1670

Hit Count: updated at: Thu, 24 Sep 2020 18:47:13 GMT